Location: Unspecified
(0.0000°N, 0.0000°E)
Time: 07:57:20
(UTC+00:00)

N. Korean satellite - Pass Details

Date: 31 July 2021
Orbit: 451 x 498 km, 97.2° (Epoch: 31 July)

Event Time Altitude Azimuth Distance (km) Brightness Sun altitude
Rises 04:36:53 0° 22° (NNE) 2,480 10.8 -21.2°
Reaches altitude 10° 04:39:01 10° 30° (NNE) 1,601 9.8 -20.7°
Maximum altitude 04:42:15 40° 101° (E) 684 7.7 -19.9°
Enters shadow 04:45:25 10° 172° (S) 1,566 9.0 -19.2°
